Location: Nelson
(41.2830°S, 173.2830°E)
Time: 04:47:35
(UTC+13:00)

Radarsat Rocket - Pass Details

Date: 30 September 2021
Orbit: 933 x 1492 km, 100.6° (Epoch: 23 October)

Event Time Altitude Azimuth Distance (km) Brightness Sun altitude
Rises 21:20:30 0° 172° (S) 4,257 7.5 -20.6°
Reaches altitude 10° 21:23:38 10° 181° (S) 3,196 7.0 -21.1°
Maximum altitude 21:29:43 31° 239° (WSW) 1,881 6.1 -22.2°
Drops below altitude 10° 21:35:12 10° 297° (WNW) 2,855 6.9 -23.1°
Sets 21:37:52 0° 308° (NW) 3,738 7.4 -23.5°
